Time,TemperatureF,DewpointF,PressureIn,WindDirection,WindDirectionDegrees,WindSpeedMPH,WindSpeedGustMPH,Humidity,HourlyPrecipIn,Conditions,Clouds,dailyrainin,SoftwareType,DateUTC
2013-05-21 00:00:00,78.4,74.5,29.74,SE,145,4.0,4.0,88,0.00,,,0.00,Wunderground v.1.15,2013-05-21 05:00:00,
2013-05-21 00:10:00,78.3,74.5,29.74,SSE,162,4.0,5.0,88,0.00,,,0.00,Wunderground v.1.15,2013-05-21 05:10:00,
2013-05-21 00:15:00,78.3,74.5,29.73,SE,134,5.0,5.0,88,0.00,,,0.00,Wunderground v.1.15,2013-05-21 05:15:00,
2013-05-21 00:25:00,78.2,74.4,29.73,SE,134,5.0,6.0,88,0.00,,,0.00,Wunderground v.1.15,2013-05-21 05:25:00,
2013-05-21 00:30:00,78.2,74.4,29.72,ESE,117,5.0,5.0,88,0.00,,,0.00,Wunderground v.1.15,2013-05-21 05:30:00,
2013-05-21 00:35:00,78.2,74.7,29.72,South,184,5.0,5.0,89,0.00,,,0.00,Wunderground v.1.15,2013-05-21 05:35:00,
2013-05-21 00:40:00,78.1,74.6,29.72,SE,144,5.0,15.0,89,0.00,,,0.00,Wunderground v.1.15,2013-05-21 05:40:00,
2013-05-21 00:45:00,78.1,74.6,29.72,SSW,201,6.0,15.0,89,0.00,,,0.00,Wunderground v.1.15,2013-05-21 05:45:00,
2013-05-21 00:50:00,78.1,74.6,29.71,SE,139,5.0,5.0,89,0.00,,,0.00,Wunderground v.1.15,2013-05-21 05:50:00,
2013-05-21 01:00:00,78.0,74.5,29.71,SE,136,6.0,6.0,89,0.00,,,0.00,Wunderground v.1.15,2013-05-21 06:00:00,
2013-05-21 01:10:00,78.0,74.8,29.71,SE,135,4.0,4.0,90,0.00,,,0.00,Wunderground v.1.15,2013-05-21 06:10:00,
2013-05-21 01:15:00,78.0,74.8,29.71,East,96,5.0,5.0,90,0.00,,,0.00,Wunderground v.1.15,2013-05-21 06:15:00,
2013-05-21 01:20:00,78.0,74.8,29.71,ESE,120,5.0,5.0,90,0.00,,,0.00,Wunderground v.1.15,2013-05-21 06:20:00,
2013-05-21 01:30:00,77.9,74.7,29.71,SE,124,4.0,6.0,90,0.00,,,0.00,Wunderground v.1.15,2013-05-21 06:30:00,
2013-05-21 01:35:00,77.9,74.7,29.71,ESE,120,4.0,6.0,90,0.00,,,0.00,Wunderground v.1.15,2013-05-21 06:35:00,
2013-05-21 01:40:00,77.9,74.7,29.71,SSE,165,5.0,5.0,90,0.00,,,0.00,Wunderground v.1.15,2013-05-21 06:40:00,
2013-05-21 01:45:00,77.9,74.7,29.70,East,93,5.0,5.0,90,0.00,,,0.00,Wunderground v.1.15,2013-05-21 06:45:00,
2013-05-21 01:50:00,77.8,74.3,29.70,East,98,4.0,4.0,89,0.00,,,0.00,Wunderground v.1.15,2013-05-21 06:50:00,
2013-05-21 01:55:00,77.8,74.3,29.70,SE,132,4.0,4.0,89,0.00,,,0.00,Wunderground v.1.15,2013-05-21 06:55:00,
2013-05-21 02:00:00,77.8,74.6,29.70,ESE,109,5.0,5.0,90,0.00,,,0.00,Wunderground v.1.15,2013-05-21 07:00:00,
2013-05-21 02:10:00,77.7,74.5,29.70,East,94,4.0,4.0,90,0.00,,,0.00,Wunderground v.1.15,2013-05-21 07:10:00,
2013-05-21 02:15:00,77.7,74.5,29.69,ESE,121,5.0,6.0,90,0.00,,,0.00,Wunderground v.1.15,2013-05-21 07:15:00,
2013-05-21 02:20:00,77.7,74.5,29.69,East,89,6.0,6.0,90,0.00,,,0.00,Wunderground v.1.15,2013-05-21 07:20:00,
2013-05-21 02:25:00,77.8,75.0,29.69,East,101,6.0,6.0,91,0.00,,,0.00,Wunderground v.1.15,2013-05-21 07:25:00,
2013-05-21 02:35:00,77.9,75.4,29.69,ESE,117,5.0,11.0,92,0.00,,,0.00,Wunderground v.1.15,2013-05-21 07:35:00,
2013-05-21 02:40:00,77.9,75.4,29.69,SE,131,5.0,5.0,92,0.00,,,0.00,Wunderground v.1.15,2013-05-21 07:40:00,
2013-05-21 02:45:00,77.9,75.4,29.69,SE,131,6.0,6.0,92,0.00,,,0.00,Wunderground v.1.15,2013-05-21 07:45:00,
2013-05-21 02:50:00,77.8,75.3,29.69,South,179,5.0,6.0,92,0.00,,,0.00,Wunderground v.1.15,2013-05-21 07:50:00,
2013-05-21 02:55:00,77.7,75.2,29.69,SE,131,5.0,6.0,92,0.00,,,0.00,Wunderground v.1.15,2013-05-21 07:55:00,
2013-05-21 03:00:00,77.6,75.1,29.69,ESE,123,5.0,5.0,92,0.00,,,0.00,Wunderground v.1.15,2013-05-21 08:00:00,
2013-05-21 03:10:00,77.5,75.0,29.69,East,98,5.0,5.0,92,0.00,,,0.00,Wunderground v.1.15,2013-05-21 08:10:00,
2013-05-21 03:15:00,77.4,74.9,29.69,SSE,160,5.0,5.0,92,0.00,,,0.00,Wunderground v.1.15,2013-05-21 08:15:00,
2013-05-21 03:20:00,77.4,74.9,29.69,SSE,162,4.0,5.0,92,0.00,,,0.00,Wunderground v.1.15,2013-05-21 08:20:00,
2013-05-21 03:25:00,77.3,74.8,29.69,ESE,113,5.0,5.0,92,0.00,,,0.00,Wunderground v.1.15,2013-05-21 08:25:00,
2013-05-21 03:30:00,77.2,74.7,29.69,SSE,153,4.0,6.0,92,0.00,,,0.00,Wunderground v.1.15,2013-05-21 08:30:00,
2013-05-21 03:40:00,77.2,74.7,29.69,SSW,197,5.0,5.0,92,0.00,,,0.00,Wunderground v.1.15,2013-05-21 08:40:00,
2013-05-21 03:45:00,77.1,74.6,29.69,South,190,4.0,5.0,92,0.00,,,0.00,Wunderground v.1.15,2013-05-21 08:45:00,
2013-05-21 03:50:00,77.1,74.6,29.69,SSW,201,3.0,3.0,92,0.00,,,0.00,Wunderground v.1.15,2013-05-21 08:50:00,
2013-05-21 03:55:00,77.1,74.6,29.69,SSE,148,4.0,4.0,92,0.00,,,0.00,Wunderground v.1.15,2013-05-21 08:55:00,
2013-05-21 04:00:00,77.2,74.7,29.69,South,178,4.0,6.0,92,0.00,,,0.00,Wunderground v.1.15,2013-05-21 09:00:00,
2013-05-21 04:10:00,77.2,74.7,29.69,SSE,163,4.0,4.0,92,0.00,,,0.00,Wunderground v.1.15,2013-05-21 09:10:00,
2013-05-21 04:15:00,77.3,74.8,29.69,SSE,156,4.0,6.0,92,0.00,,,0.00,Wunderground v.1.15,2013-05-21 09:15:00,
2013-05-21 04:20:00,77.3,74.8,29.69,South,184,4.0,6.0,92,0.00,,,0.00,Wunderground v.1.15,2013-05-21 09:20:00,
2013-05-21 04:25:00,77.3,74.8,29.69,South,169,5.0,6.0,92,0.00,,,0.00,Wunderground v.1.15,2013-05-21 09:25:00,
2013-05-21 04:30:00,77.3,74.8,29.69,SSE,147,5.0,5.0,92,0.00,,,0.00,Wunderground v.1.15,2013-05-21 09:30:00,
2013-05-21 04:35:00,77.4,74.9,29.69,SSW,203,4.0,8.0,92,0.00,,,0.00,Wunderground v.1.15,2013-05-21 09:35:00,
2013-05-21 04:45:00,77.4,74.9,29.70,SE,146,4.0,5.0,92,0.00,,,0.00,Wunderground v.1.15,2013-05-21 09:45:00,
2013-05-21 04:50:00,77.4,74.9,29.70,SSE,156,5.0,8.0,92,0.00,,,0.00,Wunderground v.1.15,2013-05-21 09:50:00,
2013-05-21 04:55:00,77.4,74.9,29.69,ESE,107,5.0,8.0,92,0.00,,,0.00,Wunderground v.1.15,2013-05-21 09:55:00,
2013-05-21 05:00:00,77.4,74.9,29.69,East,85,4.0,4.0,92,0.00,,,0.00,Wunderground v.1.15,2013-05-21 10:00:00,
2013-05-21 05:10:00,77.4,74.9,29.70,East,89,4.0,7.0,92,0.00,,,0.00,Wunderground v.1.15,2013-05-21 10:10:00,
2013-05-21 05:20:00,77.5,75.0,29.70,SSE,156,4.0,4.0,92,0.00,,,0.00,Wunderground v.1.15,2013-05-21 10:20:00,
2013-05-21 05:25:00,77.6,75.1,29.71,SE,136,4.0,4.0,92,0.00,,,0.00,Wunderground v.1.15,2013-05-21 10:25:00,
2013-05-21 05:30:00,77.6,75.1,29.71,SSW,201,4.0,4.0,92,0.00,,,0.00,Wunderground v.1.15,2013-05-21 10:30:00,
2013-05-21 05:35:00,77.7,75.2,29.71,South,170,4.0,4.0,92,0.00,,,0.00,Wunderground v.1.15,2013-05-21 10:35:00,
2013-05-21 05:40:00,77.8,75.3,29.70,SE,134,4.0,4.0,92,0.00,,,0.00,Wunderground v.1.15,2013-05-21 10:40:00,
2013-05-21 05:50:00,77.8,75.3,29.70,South,179,4.0,4.0,92,0.00,,,0.00,Wunderground v.1.15,2013-05-21 10:50:00,
2013-05-21 05:55:00,77.8,75.3,29.70,SSE,148,4.0,7.0,92,0.00,,,0.00,Wunderground v.1.15,2013-05-21 10:55:00,
2013-05-21 06:00:00,77.8,75.3,29.70,SE,136,4.0,5.0,92,0.00,,,0.00,Wunderground v.1.15,2013-05-21 11:00:00,
2013-05-21 06:10:00,77.7,75.2,29.72,ESE,121,4.0,5.0,92,0.00,,,0.00,Wunderground v.1.15,2013-05-21 11:10:00,
2013-05-21 06:15:00,77.7,75.2,29.72,ESE,113,4.0,5.0,92,0.00,,,0.00,Wunderground v.1.15,2013-05-21 11:15:00,
2013-05-21 06:20:00,77.7,75.2,29.72,ESE,107,4.0,4.0,92,0.00,,,0.00,Wunderground v.1.15,2013-05-21 11:20:00,
2013-05-21 06:25:00,77.7,75.2,29.72,ESE,115,4.0,7.0,92,0.00,,,0.00,Wunderground v.1.15,2013-05-21 11:25:00,
2013-05-21 06:30:00,77.8,75.0,29.72,SE,145,4.0,6.0,91,0.00,,,0.00,Wunderground v.1.15,2013-05-21 11:30:00,
2013-05-21 06:35:00,77.9,75.1,29.72,SSE,167,5.0,7.0,91,0.00,,,0.00,Wunderground v.1.15,2013-05-21 11:35:00,
2013-05-21 06:40:00,77.9,75.1,29.73,SSE,148,5.0,5.0,91,0.00,,,0.00,Wunderground v.1.15,2013-05-21 11:40:00,
2013-05-21 06:45:00,77.9,75.1,29.73,South,170,4.0,5.0,91,0.00,,,0.00,Wunderground v.1.15,2013-05-21 11:45:00,
2013-05-21 06:55:00,77.9,75.1,29.73,SSE,153,4.0,6.0,91,0.00,,,0.00,Wunderground v.1.15,2013-05-21 11:55:00,
2013-05-21 07:00:00,77.9,75.1,29.73,SE,146,3.0,8.0,91,0.00,,,0.00,Wunderground v.1.15,2013-05-21 12:00:00,
2013-05-21 07:10:00,77.9,75.1,29.73,SSE,152,5.0,5.0,91,0.00,,,0.00,Wunderground v.1.15,2013-05-21 12:10:00,
2013-05-21 07:15:00,77.9,75.1,29.73,ESE,113,5.0,5.0,91,0.00,,,0.00,Wunderground v.1.15,2013-05-21 12:15:00,
2013-05-21 07:20:00,77.9,75.1,29.74,SE,131,4.0,4.0,91,0.00,,,0.00,Wunderground v.1.15,2013-05-21 12:20:00,
2013-05-21 07:25:00,77.9,74.7,29.74,SSE,157,4.0,6.0,90,0.00,,,0.00,Wunderground v.1.15,2013-05-21 12:25:00,
2013-05-21 07:30:00,77.9,74.7,29.74,ESE,123,5.0,8.0,90,0.00,,,0.00,Wunderground v.1.15,2013-05-21 12:30:00,
2013-05-21 07:35:00,77.9,74.7,29.74,ENE,65,5.0,8.0,90,0.00,,,0.00,Wunderground v.1.15,2013-05-21 12:35:00,
2013-05-21 07:40:00,77.9,74.7,29.74,ESE,122,5.0,5.0,90,0.00,,,0.00,Wunderground v.1.15,2013-05-21 12:40:00,
2013-05-21 07:45:00,77.9,74.7,29.74,SSE,149,5.0,5.0,90,0.00,,,0.00,Wunderground v.1.15,2013-05-21 12:45:00,
2013-05-21 07:50:00,77.9,74.7,29.74,SSE,155,4.0,4.0,90,0.00,,,0.00,Wunderground v.1.15,2013-05-21 12:50:00,
2013-05-21 08:00:00,78.0,74.5,29.74,SE,143,5.0,6.0,89,0.00,,,0.00,Wunderground v.1.15,2013-05-21 13:00:00,
2013-05-21 08:10:00,78.2,74.7,29.74,ENE,68,5.0,7.0,89,0.00,,,0.00,Wunderground v.1.15,2013-05-21 13:10:00,
2013-05-21 08:15:00,78.4,74.5,29.74,ESE,118,5.0,7.0,88,0.00,,,0.00,Wunderground v.1.15,2013-05-21 13:15:00,
2013-05-21 08:20:00,78.5,74.6,29.74,SE,134,5.0,9.0,88,0.00,,,0.00,Wunderground v.1.15,2013-05-21 13:20:00,
2013-05-21 08:25:00,78.7,74.5,29.74,SSW,194,6.0,12.0,87,0.00,,,0.00,Wunderground v.1.15,2013-05-21 13:25:00,
2013-05-21 08:30:00,79.0,74.8,29.74,East,82,5.0,5.0,87,0.00,,,0.00,Wunderground v.1.15,2013-05-21 13:30:00,
2013-05-21 08:35:00,79.2,75.0,29.74,East,86,5.0,5.0,87,0.00,,,0.00,Wunderground v.1.15,2013-05-21 13:35:00,
2013-05-21 08:40:00,79.1,74.9,29.74,SE,132,7.0,9.0,87,0.00,,,0.00,Wunderground v.1.15,2013-05-21 13:40:00,
2013-05-21 08:45:00,79.1,75.2,29.74,East,92,7.0,9.0,88,0.00,,,0.00,Wunderground v.1.15,2013-05-21 13:45:00,
2013-05-21 08:50:00,79.2,75.3,29.74,East,94,6.0,9.0,88,0.00,,,0.00,Wunderground v.1.15,2013-05-21 13:50:00,
2013-05-21 08:55:00,79.2,75.3,29.74,South,170,7.0,9.0,88,0.00,,,0.00,Wunderground v.1.15,2013-05-21 13:55:00,
2013-05-21 09:00:00,79.2,75.3,29.74,ESE,115,7.0,9.0,88,0.00,,,0.00,Wunderground v.1.15,2013-05-21 14:00:00,
2013-05-21 09:10:00,79.6,75.7,29.74,SE,132,7.0,7.0,88,0.00,,,0.00,Wunderground v.1.15,2013-05-21 14:10:00,
2013-05-21 09:15:00,79.8,75.6,29.73,ENE,75,7.0,9.0,87,0.00,,,0.00,Wunderground v.1.15,2013-05-21 14:15:00,
2013-05-21 09:20:00,80.2,76.0,29.74,South,188,6.0,6.0,87,0.00,,,0.00,Wunderground v.1.15,2013-05-21 14:20:00,
2013-05-21 09:25:00,80.6,76.0,29.74,East,90,6.0,6.0,86,0.00,,,0.00,Wunderground v.1.15,2013-05-21 14:25:00,
2013-05-21 09:30:00,80.8,75.9,29.74,SSE,158,6.0,9.0,85,0.00,,,0.00,Wunderground v.1.15,2013-05-21 14:30:00,
2013-05-21 09:35:00,80.8,75.9,29.74,ESE,120,7.0,9.0,85,0.00,,,0.00,Wunderground v.1.15,2013-05-21 14:35:00,
2013-05-21 09:40:00,80.6,75.7,29.74,SSE,166,7.0,9.0,85,0.00,,,0.00,Wunderground v.1.15,2013-05-21 14:40:00,
2013-05-21 09:45:00,80.6,75.3,29.74,SE,135,8.0,9.0,84,0.00,,,0.00,Wunderground v.1.15,2013-05-21 14:45:00,
2013-05-21 09:50:00,80.4,75.1,29.74,SSE,148,8.0,9.0,84,0.00,,,0.00,Wunderground v.1.15,2013-05-21 14:50:00,
2013-05-21 10:00:00,80.7,75.4,29.74,ESE,122,7.0,7.0,84,0.00,,,0.00,Wunderground v.1.15,2013-05-21 15:00:00,
2013-05-21 10:10:00,80.9,75.2,29.74,ENE,77,7.0,7.0,83,0.00,,,0.00,Wunderground v.1.15,2013-05-21 15:10:00,
2013-05-21 10:15:00,81.0,75.0,29.74,South,170,7.0,7.0,82,0.00,,,0.00,Wunderground v.1.15,2013-05-21 15:15:00,
2013-05-21 10:20:00,81.1,75.4,29.74,SSE,153,8.0,16.0,83,0.00,,,0.00,Wunderground v.1.15,2013-05-21 15:20:00,
2013-05-21 10:25:00,81.4,75.4,29.74,SSE,167,8.0,16.0,82,0.00,,,0.00,Wunderground v.1.15,2013-05-21 15:25:00,
2013-05-21 10:30:00,81.6,75.6,29.74,ESE,113,7.0,7.0,82,0.00,,,0.00,Wunderground v.1.15,2013-05-21 15:30:00,
2013-05-21 10:35:00,81.7,75.3,29.74,South,187,7.0,8.0,81,0.00,,,0.00,Wunderground v.1.15,2013-05-21 15:35:00,
2013-05-21 10:45:00,81.6,75.2,29.75,SSE,162,8.0,11.0,81,0.00,,,0.00,Wunderground v.1.15,2013-05-21 15:45:00,
2013-05-21 10:50:00,81.9,75.1,29.75,East,99,7.0,11.0,80,0.00,,,0.00,Wunderground v.1.15,2013-05-21 15:50:00,
2013-05-21 10:55:00,81.8,75.0,29.75,South,187,8.0,11.0,80,0.00,,,0.00,Wunderground v.1.15,2013-05-21 15:55:00,
2013-05-21 11:00:00,81.9,75.1,29.75,SE,134,7.0,7.0,80,0.00,,,0.00,Wunderground v.1.15,2013-05-21 16:00:00,
2013-05-21 11:10:00,81.7,75.3,29.75,SSW,211,7.0,7.0,81,0.00,,,0.00,Wunderground v.1.15,2013-05-21 16:10:00,
2013-05-21 11:15:00,81.7,74.9,29.75,East,84,7.0,7.0,80,0.00,,,0.00,Wunderground v.1.15,2013-05-21 16:15:00,
2013-05-21 11:20:00,82.1,75.7,29.75,SE,142,6.0,8.0,81,0.00,,,0.00,Wunderground v.1.15,2013-05-21 16:20:00,
2013-05-21 11:25:00,82.1,75.3,29.75,SSE,162,6.0,12.0,80,0.00,,,0.00,Wunderground v.1.15,2013-05-21 16:25:00,
2013-05-21 11:30:00,82.2,75.4,29.75,SSE,148,7.0,9.0,80,0.00,,,0.00,Wunderground v.1.15,2013-05-21 16:30:00,
2013-05-21 11:35:00,82.4,75.2,29.75,WSW,239,7.0,9.0,79,0.00,,,0.00,Wunderground v.1.15,2013-05-21 16:35:00,
2013-05-21 11:40:00,82.3,75.5,29.75,SE,145,7.0,7.0,80,0.00,,,0.00,Wunderground v.1.15,2013-05-21 16:40:00,
2013-05-21 11:50:00,82.3,75.5,29.75,NE,54,7.0,7.0,80,0.00,,,0.00,Wunderground v.1.15,2013-05-21 16:50:00,
2013-05-21 11:55:00,82.4,75.2,29.75,SSE,148,7.0,7.0,79,0.00,,,0.00,Wunderground v.1.15,2013-05-21 16:55:00,
2013-05-21 12:00:00,82.7,75.5,29.75,SSW,195,6.0,6.0,79,0.00,,,0.00,Wunderground v.1.15,2013-05-21 17:00:00,
2013-05-21 12:10:00,82.4,75.6,29.75,SE,143,6.0,6.0,80,0.00,,,0.00,Wunderground v.1.15,2013-05-21 17:10:00,
2013-05-21 12:15:00,82.4,75.6,29.75,SSE,150,7.0,9.0,80,0.00,,,0.00,Wunderground v.1.15,2013-05-21 17:15:00,
2013-05-21 12:25:00,82.1,75.3,29.75,SE,131,6.0,9.0,80,0.00,,,0.00,Wunderground v.1.15,2013-05-21 17:25:00,
2013-05-21 12:30:00,81.9,75.1,29.75,South,173,6.0,7.0,80,0.00,,,0.00,Wunderground v.1.15,2013-05-21 17:30:00,
2013-05-21 12:35:00,82.3,75.5,29.74,ESE,109,7.0,7.0,80,0.00,,,0.00,Wunderground v.1.15,2013-05-21 17:35:00,
2013-05-21 12:40:00,82.9,75.7,29.74,SSE,165,7.0,12.0,79,0.00,,,0.00,Wunderground v.1.15,2013-05-21 17:40:00,
2013-05-21 12:45:00,82.7,75.5,29.73,SE,124,7.0,12.0,79,0.00,,,0.00,Wunderground v.1.15,2013-05-21 17:45:00,
2013-05-21 12:55:00,82.6,75.4,29.73,SSE,158,8.0,9.0,79,0.00,,,0.00,Wunderground v.1.15,2013-05-21 17:55:00,
2013-05-21 13:00:00,82.8,75.2,29.73,South,187,8.0,10.0,78,0.00,,,0.00,Wunderground v.1.15,2013-05-21 18:00:00,
2013-05-21 13:10:00,82.9,75.3,29.72,South,173,10.0,10.0,78,0.00,,,0.00,Wunderground v.1.15,2013-05-21 18:10:00,
2013-05-21 13:15:00,83.0,75.4,29.72,SE,133,10.0,10.0,78,0.00,,,0.00,Wunderground v.1.15,2013-05-21 18:15:00,
2013-05-21 13:20:00,83.3,75.7,29.72,SE,137,9.0,9.0,78,0.00,,,0.00,Wunderground v.1.15,2013-05-21 18:20:00,
2013-05-21 13:30:00,83.9,75.9,29.71,SE,135,8.0,10.0,77,0.00,,,0.00,Wunderground v.1.15,2013-05-21 18:30:00,
2013-05-21 13:35:00,83.9,76.3,29.71,South,171,7.0,10.0,78,0.00,,,0.00,Wunderground v.1.15,2013-05-21 18:35:00,
2013-05-21 13:40:00,84.2,75.8,29.71,SSE,153,8.0,8.0,76,0.00,,,0.00,Wunderground v.1.15,2013-05-21 18:40:00,
2013-05-21 13:45:00,84.2,75.8,29.71,ESE,111,8.0,17.0,76,0.00,,,0.00,Wunderground v.1.15,2013-05-21 18:45:00,
2013-05-21 13:50:00,84.1,75.7,29.71,ESE,117,7.0,7.0,76,0.00,,,0.00,Wunderground v.1.15,2013-05-21 18:50:00,
2013-05-21 14:00:00,83.7,75.7,29.71,SE,131,9.0,9.0,77,0.00,,,0.00,Wunderground v.1.15,2013-05-21 19:00:00,
2013-05-21 14:10:00,83.9,75.9,29.71,SE,140,8.0,10.0,77,0.00,,,0.00,Wunderground v.1.15,2013-05-21 19:10:00,
2013-05-21 14:15:00,84.0,76.0,29.71,SSW,207,7.0,10.0,77,0.00,,,0.00,Wunderground v.1.15,2013-05-21 19:15:00,
2013-05-21 14:20:00,84.1,75.7,29.71,South,170,6.0,11.0,76,0.00,,,0.00,Wunderground v.1.15,2013-05-21 19:20:00,
2013-05-21 14:25:00,84.2,75.8,29.70,SE,130,6.0,11.0,76,0.00,,,0.00,Wunderground v.1.15,2013-05-21 19:25:00,
2013-05-21 14:35:00,83.8,75.8,29.70,East,94,8.0,9.0,77,0.00,,,0.00,Wunderground v.1.15,2013-05-21 19:35:00,
2013-05-21 14:40:00,84.1,76.1,29.70,SSE,157,7.0,7.0,77,0.00,,,0.00,Wunderground v.1.15,2013-05-21 19:40:00,
2013-05-21 14:45:00,83.8,75.8,29.70,South,183,7.0,7.0,77,0.00,,,0.00,Wunderground v.1.15,2013-05-21 19:45:00,
2013-05-21 14:50:00,83.8,76.2,29.71,South,172,7.0,7.0,78,0.00,,,0.00,Wunderground v.1.15,2013-05-21 19:50:00,
2013-05-21 14:55:00,84.2,76.2,29.71,SE,144,6.0,11.0,77,0.00,,,0.00,Wunderground v.1.15,2013-05-21 19:55:00,
2013-05-21 15:00:00,83.9,75.9,29.70,SSE,153,7.0,7.0,77,0.00,,,0.00,Wunderground v.1.15,2013-05-21 20:00:00,
2013-05-21 15:10:00,84.6,76.6,29.70,SE,136,5.0,5.0,77,0.00,,,0.00,Wunderground v.1.15,2013-05-21 20:10:00,
2013-05-21 15:15:00,84.8,76.4,29.70,SE,131,6.0,6.0,76,0.00,,,0.00,Wunderground v.1.15,2013-05-21 20:15:00,
2013-05-21 15:20:00,85.4,76.6,29.69,SW,217,6.0,11.0,75,0.00,,,0.00,Wunderground v.1.15,2013-05-21 20:20:00,
2013-05-21 15:25:00,85.5,76.3,29.69,South,179,6.0,11.0,74,0.00,,,0.00,Wunderground v.1.15,2013-05-21 20:25:00,
2013-05-21 15:30:00,85.6,76.4,29.70,SSW,211,5.0,7.0,74,0.00,,,0.00,Wunderground v.1.15,2013-05-21 20:30:00,
2013-05-21 15:40:00,85.6,76.4,29.69,SSE,158,7.0,7.0,74,0.00,,,0.00,Wunderground v.1.15,2013-05-21 20:40:00,
2013-05-21 15:45:00,85.3,76.1,29.69,SW,230,6.0,7.0,74,0.00,,,0.00,Wunderground v.1.15,2013-05-21 20:45:00,
2013-05-21 15:50:00,85.0,75.8,29.69,SSE,160,6.0,6.0,74,0.00,,,0.00,Wunderground v.1.15,2013-05-21 20:50:00,
2013-05-21 15:55:00,84.7,75.5,29.68,South,172,7.0,7.0,74,0.00,,,0.00,Wunderground v.1.15,2013-05-21 20:55:00,
2013-05-21 16:00:00,84.6,75.4,29.68,SSE,159,7.0,7.0,74,0.00,,,0.00,Wunderground v.1.15,2013-05-21 21:00:00,
2013-05-21 16:10:00,84.6,75.8,29.68,SSE,158,7.0,7.0,75,0.00,,,0.00,Wunderground v.1.15,2013-05-21 21:10:00,
2013-05-21 16:15:00,84.9,75.7,29.68,South,180,5.0,10.0,74,0.00,,,0.00,Wunderground v.1.15,2013-05-21 21:15:00,
2013-05-21 16:20:00,84.9,76.1,29.68,SSE,153,6.0,6.0,75,0.00,,,0.00,Wunderground v.1.15,2013-05-21 21:20:00,
2013-05-21 16:25:00,85.0,76.2,29.68,South,174,6.0,6.0,75,0.00,,,0.00,Wunderground v.1.15,2013-05-21 21:25:00,
2013-05-21 16:30:00,85.3,76.1,29.68,SE,131,5.0,5.0,74,0.00,,,0.00,Wunderground v.1.15,2013-05-21 21:30:00,
2013-05-21 16:35:00,85.4,76.2,29.68,ESE,113,5.0,7.0,74,0.00,,,0.00,Wunderground v.1.15,2013-05-21 21:35:00,
2013-05-21 16:40:00,85.2,76.4,29.68,SE,124,5.0,5.0,75,0.00,,,0.00,Wunderground v.1.15,2013-05-21 21:40:00,
2013-05-21 16:45:00,85.1,76.3,29.67,SSE,152,5.0,5.0,75,0.00,,,0.00,Wunderground v.1.15,2013-05-21 21:45:00,
2013-05-21 16:50:00,85.3,76.9,29.66,East,85,5.0,5.0,76,0.00,,,0.00,Wunderground v.1.15,2013-05-21 21:50:00,
2013-05-21 17:00:00,84.9,75.7,29.66,SE,124,6.0,11.0,74,0.00,,,0.00,Wunderground v.1.15,2013-05-21 22:00:00,
2013-05-21 17:10:00,84.5,76.1,29.66,East,99,7.0,7.0,76,0.00,,,0.00,Wunderground v.1.15,2013-05-21 22:10:00,
2013-05-21 17:20:00,84.5,75.7,29.65,South,183,6.0,6.0,75,0.00,,,0.00,Wunderground v.1.15,2013-05-21 22:20:00,
2013-05-21 17:25:00,84.8,76.4,29.65,ESE,110,5.0,6.0,76,0.00,,,0.00,Wunderground v.1.15,2013-05-21 22:25:00,
2013-05-21 17:30:00,85.0,76.6,29.66,SE,140,4.0,6.0,76,0.00,,,0.00,Wunderground v.1.15,2013-05-21 22:30:00,
2013-05-21 17:35:00,85.0,76.6,29.66,East,87,4.0,6.0,76,0.00,,,0.00,Wunderground v.1.15,2013-05-21 22:35:00,
2013-05-21 17:40:00,84.7,76.3,29.65,SE,134,5.0,12.0,76,0.00,,,0.00,Wunderground v.1.15,2013-05-21 22:40:00,
2013-05-21 17:50:00,84.0,76.4,29.65,ESE,121,6.0,10.0,78,0.00,,,0.00,Wunderground v.1.15,2013-05-21 22:50:00,
2013-05-21 17:55:00,83.6,76.4,29.65,SE,132,7.0,10.0,79,0.00,,,0.00,Wunderground v.1.15,2013-05-21 22:55:00,
2013-05-21 18:00:00,83.0,76.2,29.65,SSE,154,8.0,8.0,80,0.00,,,0.00,Wunderground v.1.15,2013-05-21 23:00:00,
2013-05-21 18:10:00,82.7,75.9,29.65,South,183,7.0,7.0,80,0.00,,,0.00,Wunderground v.1.15,2013-05-21 23:10:00,
2013-05-21 18:15:00,82.4,76.0,29.65,ESE,113,8.0,10.0,81,0.00,,,0.00,Wunderground v.1.15,2013-05-21 23:15:00,
2013-05-21 18:25:00,82.3,76.3,29.65,SE,131,6.0,8.0,82,0.00,,,0.00,Wunderground v.1.15,2013-05-21 23:25:00,
2013-05-21 18:30:00,82.1,76.4,29.65,SE,138,6.0,6.0,83,0.00,,,0.00,Wunderground v.1.15,2013-05-21 23:30:00,
2013-05-21 18:35:00,81.9,76.2,29.65,SE,142,6.0,9.0,83,0.00,,,0.00,Wunderground v.1.15,2013-05-21 23:35:00,
2013-05-21 18:40:00,81.7,76.0,29.65,South,180,6.0,6.0,83,0.00,,,0.00,Wunderground v.1.15,2013-05-21 23:40:00,
2013-05-21 18:45:00,81.4,76.1,29.65,SE,126,7.0,8.0,84,0.00,,,0.00,Wunderground v.1.15,2013-05-21 23:45:00,
2013-05-21 18:55:00,81.6,75.9,29.65,ESE,108,6.0,6.0,83,0.00,,,0.00,Wunderground v.1.15,2013-05-21 23:55:00,
2013-05-21 19:00:00,81.4,75.7,29.65,SSE,155,5.0,5.0,83,0.00,,,0.00,Wunderground v.1.15,2013-05-22 00:00:00,
2013-05-21 19:10:00,80.9,76.0,29.65,East,86,6.0,6.0,85,0.00,,,0.00,Wunderground v.1.15,2013-05-22 00:10:00,
2013-05-21 19:15:00,80.6,76.0,29.66,ENE,72,6.0,6.0,86,0.00,,,0.00,Wunderground v.1.15,2013-05-22 00:15:00,
2013-05-21 19:20:00,80.5,75.9,29.66,ESE,110,5.0,5.0,86,0.00,,,0.00,Wunderground v.1.15,2013-05-22 00:20:00,
2013-05-21 19:30:00,80.4,75.8,29.66,ENE,77,4.0,6.0,86,0.00,,,0.00,Wunderground v.1.15,2013-05-22 00:30:00,
2013-05-21 19:35:00,80.2,75.6,29.66,South,183,5.0,6.0,86,0.00,,,0.00,Wunderground v.1.15,2013-05-22 00:35:00,
2013-05-21 19:40:00,80.1,75.5,29.66,SSE,159,5.0,5.0,86,0.00,,,0.00,Wunderground v.1.15,2013-05-22 00:40:00,
2013-05-21 19:45:00,79.9,75.7,29.66,ESE,119,5.0,5.0,87,0.00,,,0.00,Wunderground v.1.15,2013-05-22 00:45:00,
2013-05-21 19:50:00,79.8,75.6,29.66,South,176,4.0,5.0,87,0.00,,,0.00,Wunderground v.1.15,2013-05-22 00:50:00,
2013-05-21 20:00:00,79.6,75.4,29.66,SSE,148,5.0,5.0,87,0.00,,,0.00,Wunderground v.1.15,2013-05-22 01:00:00,
2013-05-21 20:10:00,79.5,75.6,29.66,SW,224,4.0,4.0,88,0.00,,,0.00,Wunderground v.1.15,2013-05-22 01:10:00,
2013-05-21 20:15:00,79.4,75.5,29.66,SE,126,4.0,4.0,88,0.00,,,0.00,Wunderground v.1.15,2013-05-22 01:15:00,
2013-05-21 20:20:00,79.3,75.4,29.66,SE,131,5.0,5.0,88,0.00,,,0.00,Wunderground v.1.15,2013-05-22 01:20:00,
2013-05-21 20:25:00,79.2,75.3,29.66,SSE,168,5.0,5.0,88,0.00,,,0.00,Wunderground v.1.15,2013-05-22 01:25:00,
2013-05-21 20:35:00,79.2,75.7,29.67,SE,144,4.0,5.0,89,0.00,,,0.00,Wunderground v.1.15,2013-05-22 01:35:00,
2013-05-21 20:40:00,79.2,75.7,29.67,SSW,193,4.0,4.0,89,0.00,,,0.00,Wunderground v.1.15,2013-05-22 01:40:00,
2013-05-21 20:45:00,79.2,75.7,29.67,SE,132,3.0,4.0,89,0.00,,,0.00,Wunderground v.1.15,2013-05-22 01:45:00,
2013-05-21 20:50:00,79.2,75.7,29.67,South,169,4.0,4.0,89,0.00,,,0.00,Wunderground v.1.15,2013-05-22 01:50:00,
2013-05-21 20:55:00,79.2,75.7,29.68,SSE,163,4.0,4.0,89,0.00,,,0.00,Wunderground v.1.15,2013-05-22 01:55:00,
2013-05-21 21:00:00,79.2,75.7,29.68,South,184,4.0,4.0,89,0.00,,,0.00,Wunderground v.1.15,2013-05-22 02:00:00,
2013-05-21 21:10:00,79.1,75.6,29.69,East,96,4.0,4.0,89,0.00,,,0.00,Wunderground v.1.15,2013-05-22 02:10:00,
2013-05-21 21:15:00,79.0,75.8,29.69,SSE,149,4.0,4.0,90,0.00,,,0.00,Wunderground v.1.15,2013-05-22 02:15:00,
2013-05-21 21:20:00,79.0,75.8,29.69,ESE,114,3.0,6.0,90,0.00,,,0.00,Wunderground v.1.15,2013-05-22 02:20:00,
2013-05-21 21:25:00,79.0,75.8,29.70,South,179,3.0,6.0,90,0.00,,,0.00,Wunderground v.1.15,2013-05-22 02:25:00,
2013-05-21 21:30:00,79.1,75.9,29.70,SE,146,3.0,3.0,90,0.00,,,0.00,Wunderground v.1.15,2013-05-22 02:30:00,
2013-05-21 21:40:00,79.0,75.8,29.70,South,172,3.0,5.0,90,0.00,,,0.00,Wunderground v.1.15,2013-05-22 02:40:00,
2013-05-21 21:45:00,79.0,75.8,29.70,SE,141,3.0,5.0,90,0.00,,,0.00,Wunderground v.1.15,2013-05-22 02:45:00,
2013-05-21 21:50:00,79.1,75.9,29.70,SE,134,4.0,6.0,90,0.00,,,0.00,Wunderground v.1.15,2013-05-22 02:50:00,
2013-05-21 21:55:00,79.0,75.8,29.70,SE,141,4.0,6.0,90,0.00,,,0.00,Wunderground v.1.15,2013-05-22 02:55:00,
2013-05-21 22:00:00,79.0,75.8,29.70,SE,145,3.0,3.0,90,0.00,,,0.00,Wunderground v.1.15,2013-05-22 03:00:00,
2013-05-21 22:10:00,79.0,75.8,29.70,ESE,113,3.0,4.0,90,0.00,,,0.00,Wunderground v.1.15,2013-05-22 03:10:00,
2013-05-21 22:15:00,78.9,75.7,29.70,ESE,103,3.0,4.0,90,0.00,,,0.00,Wunderground v.1.15,2013-05-22 03:15:00,
2013-05-21 22:20:00,78.9,75.7,29.70,SE,139,4.0,4.0,90,0.00,,,0.00,Wunderground v.1.15,2013-05-22 03:20:00,
2013-05-21 22:25:00,78.9,76.0,29.70,SE,132,4.0,6.0,91,0.00,,,0.00,Wunderground v.1.15,2013-05-22 03:25:00,
2013-05-21 22:30:00,78.8,75.9,29.70,SSW,203,4.0,4.0,91,0.00,,,0.00,Wunderground v.1.15,2013-05-22 03:30:00,
2013-05-21 22:35:00,78.8,75.9,29.70,SSE,163,4.0,4.0,91,0.00,,,0.00,Wunderground v.1.15,2013-05-22 03:35:00,
2013-05-21 22:45:00,78.7,75.8,29.70,ESE,106,3.0,4.0,91,0.00,,,0.00,Wunderground v.1.15,2013-05-22 03:45:00,
2013-05-21 22:50:00,78.7,75.8,29.70,SSE,165,3.0,4.0,91,0.00,,,0.00,Wunderground v.1.15,2013-05-22 03:50:00,
2013-05-21 22:55:00,78.7,75.8,29.70,SE,134,4.0,7.0,91,0.00,,,0.00,Wunderground v.1.15,2013-05-22 03:55:00,
2013-05-21 23:00:00,78.6,75.8,29.70,SE,124,4.0,4.0,91,0.00,,,0.00,Wunderground v.1.15,2013-05-22 04:00:00,
2013-05-21 23:05:00,78.6,75.8,29.71,SSE,158,4.0,4.0,91,0.00,,,0.00,Wunderground v.1.15,2013-05-22 04:05:00,
2013-05-21 23:10:00,78.6,76.1,29.71,SE,125,3.0,3.0,92,0.00,,,0.00,Wunderground v.1.15,2013-05-22 04:10:00,
2013-05-21 23:15:00,78.5,76.0,29.71,SE,144,3.0,4.0,92,0.00,,,0.00,Wunderground v.1.15,2013-05-22 04:15:00,
2013-05-21 23:20:00,78.5,76.0,29.71,SE,136,3.0,3.0,92,0.00,,,0.00,Wunderground v.1.15,2013-05-22 04:20:00,
2013-05-21 23:25:00,78.5,76.0,29.71,SSE,157,3.0,3.0,92,0.00,,,0.00,Wunderground v.1.15,2013-05-22 04:25:00,
2013-05-21 23:30:00,78.5,76.0,29.71,ESE,104,3.0,3.0,92,0.00,,,0.00,Wunderground v.1.15,2013-05-22 04:30:00,
2013-05-21 23:35:00,78.5,76.0,29.72,SSE,147,2.0,3.0,92,0.00,,,0.00,Wunderground v.1.15,2013-05-22 04:35:00,
2013-05-21 23:40:00,78.5,76.0,29.72,SSE,153,2.0,2.0,92,0.00,,,0.00,Wunderground v.1.15,2013-05-22 04:40:00,
2013-05-21 23:50:00,78.5,76.0,29.72,SSE,157,2.0,4.0,92,0.00,,,0.00,Wunderground v.1.15,2013-05-22 04:50:00,
2013-05-21 23:55:00,78.5,76.0,29.72,SSE,148,3.0,4.0,92,0.00,,,0.00,Wunderground v.1.15,2013-05-22 04:55:00,